Tracking 19562 objects as of 21-Mar-2019
HD Live streaming from Space Station
objects crossing your sky now

OPS 6393 (FLTSATCOM 3)

Track OPS 6393 (FLTSATCOM 3) now!
OPS 6393 (FLTSATCOM 3) is classified as:


NORAD ID: 11669
Int'l Code: 1980-004A
Perigee: 35,694.9 km
Apogee: 35,877.1 km
Inclination: 11.4 °
Period: 1,435.7 minutes
Semi major axis: 42156 km
RCS: 3.9811 m2 (large)
Launch date: January 18, 1980
Source: United States (US)
Launch site: AIR FORCE EASTERN TEST RANGE (AFETR)
aabbcc
Your satellite tracking list
Your tracking list is empty




NASA's NSSDC Master Catalog

Two Line Element Set (TLE):
1 11669U 80004A   19079.55570288  .00000052  00000-0  00000+0 0  9997
2 11669  11.3813 326.7942 0021606 175.3292  62.4577  1.00299466143421
Source of the keplerian elements: AFSPC